timestamp,surface_pressure_avg,surface_temp_avg,battery_voltage,lat,long
2024-03-04 00:19:00+00:00,227.4364,0.2,11.53,47.84626,-54.09684
2024-03-04 00:29:00+00:00,225.7815,0.2,11.53,47.84626,-54.09684
2024-03-04 00:39:00+00:00,227.3181,0.2,11.53,47.84626,-54.09684
2024-03-04 00:49:00+00:00,232.4547,0.2,11.53,47.84626,-54.09684
2024-03-04 00:59:00+00:00,233.8064,0.2,11.53,47.84626,-54.09684
2024-03-04 01:09:00+00:00,231.3647,0.2,11.53,47.84626,-54.09684
2024-03-04 01:19:00+00:00,233.6414,0.2,11.53,47.84626,-54.09684
2024-03-04 01:29:00+00:00,239.9948,0.2,11.53,47.84626,-54.09684
2024-03-04 01:39:00+00:00,242.5998,0.2,11.53,47.84626,-54.09684
2024-03-04 01:49:00+00:00,242.6231,0.2,11.53,47.84626,-54.09684
2024-03-04 01:59:00+00:00,248.0598,0.2,11.53,47.84626,-54.09684
2024-03-04 02:09:00+00:00,254.4031,0.2,11.53,47.84626,-54.09684
2024-03-04 02:19:00+00:00,258.7248,0.27,11.53,47.84626,-54.09684
2024-03-04 02:29:00+00:00,262.7614,0.26,11.53,47.84626,-54.09684
2024-03-04 02:39:00+00:00,271.1231,0.2,11.53,47.84626,-54.09684
2024-03-04 02:49:00+00:00,276.6097,0.3,11.53,47.84626,-54.09684
2024-03-04 02:59:00+00:00,280.3531,0.37,11.53,47.84626,-54.09684
2024-03-04 03:09:00+00:00,285.918,0.4,11.53,47.84626,-54.09684
2024-03-04 03:19:00+00:00,292.2881,0.4,11.53,47.84626,-54.09684
2024-03-04 03:29:00+00:00,293.7463,0.43,11.53,47.84626,-54.09684
2024-03-04 03:39:00+00:00,294.2531,0.47,11.53,47.84626,-54.09684
2024-03-04 03:49:00+00:00,300.513,0.46,11.53,47.84626,-54.09684
2024-03-04 03:59:00+00:00,304.6863,0.43,11.53,47.84626,-54.09684
2024-03-04 04:09:00+00:00,305.9114,0.43,11.53,47.84626,-54.09684
2024-03-04 04:19:00+00:00,309.4747,0.48,11.53,47.84626,-54.09684
2024-03-04 04:29:00+00:00,313.258,0.4,11.53,47.84626,-54.09684
2024-03-04 04:39:00+00:00,314.3347,0.3,11.53,47.84626,-54.09684
2024-03-04 04:49:00+00:00,313.4747,0.3,11.53,47.84626,-54.09684
2024-03-04 04:59:00+00:00,316.3097,0.33,11.53,47.84626,-54.09684
2024-03-04 05:09:00+00:00,319.5146,0.3,11.53,47.84626,-54.09684
2024-03-04 05:19:01+00:00,318.0179,0.36,11.53,47.84626,-54.09684
2024-03-04 05:29:01+00:00,319.478,0.4,11.53,47.84626,-54.09684
2024-03-04 05:39:01+00:00,323.8296,0.43,11.53,47.84626,-54.09684
2024-03-04 05:49:01+00:00,325.1714,0.5,11.53,47.84626,-54.09684
2024-03-04 05:59:01+00:00,324.0196,0.5,11.53,47.84626,-54.09684
2024-03-04 06:09:01+00:00,323.2296,0.5,11.53,47.84626,-54.09684
2024-03-04 06:19:00+00:00,327.118,0.5,11.53,47.84626,-54.09684
2024-03-04 06:29:00+00:00,326.0897,0.52,11.53,47.84626,-54.09684
2024-03-04 06:39:00+00:00,321.8148,0.55,11.53,47.84626,-54.09684
2024-03-04 06:49:00+00:00,320.0797,0.56,11.53,47.84626,-54.09684
2024-03-04 06:59:00+00:00,318.9513,0.58,11.53,47.84626,-54.09684
2024-03-04 07:09:00+00:00,316.823,0.58,11.53,47.84626,-54.09684
2024-03-04 07:19:00+00:00,313.493,0.56,11.53,47.84626,-54.09684
2024-03-04 07:29:00+00:00,310.468,0.5,11.53,47.84626,-54.09684
2024-03-04 07:39:00+00:00,306.3831,0.5,11.53,47.84626,-54.09684
2024-03-04 07:49:00+00:00,302.1946,0.49,11.53,47.84626,-54.09684
2024-03-04 07:59:00+00:00,299.2164,0.46,11.53,47.84626,-54.09684
2024-03-04 08:09:00+00:00,293.093,0.4,11.53,47.84626,-54.09684
2024-03-04 08:19:00+00:00,285.9197,0.4,11.53,47.84626,-54.09684
2024-03-04 08:29:00+00:00,279.9948,0.4,11.53,47.84626,-54.09684
2024-03-04 08:39:00+00:00,276.5447,0.4,11.53,47.84626,-54.09684
2024-03-04 08:49:00+00:00,272.8314,0.39,11.53,47.84626,-54.09684
2024-03-04 08:59:00+00:00,268.1964,0.38,11.53,47.84626,-54.09684
2024-03-04 09:09:00+00:00,265.9214,0.38,11.53,47.84626,-54.09684
2024-03-04 09:19:00+00:00,261.4681,0.39,11.53,47.84626,-54.09684
2024-03-04 09:29:00+00:00,254.9298,0.34,11.53,47.84626,-54.09684
2024-03-04 09:39:00+00:00,250.0814,0.3,11.53,47.84626,-54.09684
2024-03-04 09:49:00+00:00,248.9864,0.34,11.53,47.84626,-54.09684
2024-03-04 09:59:00+00:00,246.7764,0.34,11.53,47.84626,-54.09684
2024-03-04 10:09:00+00:00,240.5397,0.34,11.53,47.84626,-54.09684
2024-03-04 10:19:00+00:00,239.0697,0.3,11.53,47.84626,-54.09684
2024-03-04 10:29:00+00:00,240.5048,0.3,11.53,47.84626,-54.09684
2024-03-04 10:39:00+00:00,240.3414,0.35,11.53,47.84626,-54.09684
2024-03-04 10:49:00+00:00,237.1398,0.4,11.53,47.84626,-54.09684
2024-03-04 10:59:00+00:00,240.4831,0.4,11.53,47.84626,-54.09684
2024-03-04 11:09:00+00:00,244.6115,0.45,11.53,47.84626,-54.09684
2024-03-04 11:19:00+00:00,246.4681,0.53,11.53,47.84626,-54.09684
2024-03-04 11:29:00+00:00,245.2314,0.59,11.53,47.84626,-54.09684
2024-03-04 11:39:00+00:00,245.7347,0.57,11.53,47.84626,-54.09684
2024-03-04 11:49:00+00:00,246.7531,0.59,11.53,47.84626,-54.09684
2024-03-04 11:59:00+00:00,247.5664,0.59,11.53,47.84626,-54.09684
2024-03-04 12:09:00+00:00,247.4964,0.6,11.53,47.84626,-54.09684
2024-03-04 12:19:00+00:00,245.6114,0.6,11.53,47.84626,-54.09684
2024-03-04 12:29:00+00:00,247.2981,0.6,11.53,47.84626,-54.09684
2024-03-04 12:39:00+00:00,249.7798,0.62,11.53,47.84626,-54.09684
2024-03-04 12:49:00+00:00,249.5914,0.67,11.53,47.84626,-54.09684
2024-03-04 12:59:00+00:00,243.4881,0.7,11.53,47.84626,-54.09684
2024-03-04 13:09:00+00:00,242.0381,0.6,11.53,47.84626,-54.09684
2024-03-04 13:19:00+00:00,242.7148,0.6,11.53,47.84626,-54.09684
2024-03-04 13:29:00+00:00,244.4914,0.5,11.53,47.84626,-54.09684
2024-03-04 13:39:00+00:00,241.9631,0.5,11.53,47.84626,-54.09684
2024-03-04 13:49:00+00:00,243.6198,0.5,11.53,47.84626,-54.09684
2024-03-04 13:59:00+00:00,247.0981,0.5,11.53,47.84626,-54.09684
2024-03-04 14:09:00+00:00,253.0397,0.51,11.53,47.84626,-54.09684
2024-03-04 14:19:00+00:00,254.1664,0.59,11.93,47.84626,-54.09684
2024-03-04 14:29:00+00:00,255.3148,0.54,11.93,47.84626,-54.09684
2024-03-04 14:39:00+00:00,259.1964,0.5,11.93,47.84626,-54.09684
2024-03-04 14:49:00+00:00,265.8714,0.5,11.93,47.84626,-54.09684
2024-03-04 14:59:00+00:00,265.8614,0.5,11.93,47.84626,-54.09684
2024-03-04 15:09:00+00:00,268.5247,0.5,11.93,47.84626,-54.09684
2024-03-04 15:19:00+00:00,276.5514,0.5,12.09,47.84626,-54.09684
2024-03-04 15:29:00+00:00,283.063,0.5,12.09,47.84626,-54.09684
2024-03-04 15:39:00+00:00,281.438,0.54,12.09,47.84626,-54.09684
2024-03-04 15:49:00+00:00,283.2747,0.5,12.09,47.84626,-54.09684
2024-03-04 15:59:00+00:00,288.7964,0.45,12.09,47.84626,-54.09684
2024-03-04 16:09:00+00:00,291.368,0.42,12.09,47.84626,-54.09684
2024-03-04 16:19:00+00:00,288.6014,0.5,12.17,47.84626,-54.09684
2024-03-04 16:29:00+00:00,292.5063,0.5,12.17,47.84626,-54.09684
2024-03-04 16:39:00+00:00,297.8264,0.5,12.17,47.84626,-54.09684
2024-03-04 16:49:00+00:00,298.1014,0.54,12.17,47.84626,-54.09684
2024-03-04 16:59:00+00:00,298.058,0.54,12.17,47.84626,-54.09684
2024-03-04 17:09:00+00:00,297.6647,0.55,12.17,47.84626,-54.09684
2024-03-04 17:19:00+00:00,300.5347,0.54,12.09,47.84626,-54.09684
2024-03-04 17:29:00+00:00,304.0613,0.54,12.09,47.84626,-54.09684
2024-03-04 17:39:00+00:00,306.8297,0.55,12.09,47.84626,-54.09684
2024-03-04 17:49:00+00:00,303.5214,0.55,12.09,47.84626,-54.09684
2024-03-04 17:59:00+00:00,301.613,0.57,12.09,47.84626,-54.09684
2024-03-04 18:09:00+00:00,303.9063,0.59,12.09,47.84626,-54.09684
2024-03-04 18:19:00+00:00,304.0663,0.6,12.01,47.84626,-54.09684
2024-03-04 18:29:00+00:00,300.608,0.6,12.01,47.84626,-54.09684
2024-03-04 18:39:00+00:00,301.078,0.6,12.01,47.84626,-54.09684
2024-03-04 18:49:00+00:00,303.5063,0.68,12.01,47.84626,-54.09684
2024-03-04 18:59:00+00:00,303.0764,0.7,12.01,47.84626,-54.09684
2024-03-04 19:09:00+00:00,300.4431,0.72,12.01,47.84626,-54.09684
2024-03-04 19:19:00+00:00,300.543,0.75,11.86,47.84626,-54.09684
2024-03-04 19:29:00+00:00,299.328,0.78,11.86,47.84626,-54.09684
2024-03-04 19:39:00+00:00,295.0581,0.79,11.86,47.84626,-54.09684
2024-03-04 19:49:00+00:00,290.3948,0.8,11.86,47.84626,-54.09684
2024-03-04 19:59:00+00:00,288.3297,0.8,11.86,47.84626,-54.09684
2024-03-04 20:09:00+00:00,283.828,0.8,11.86,47.84626,-54.09684
2024-03-04 20:19:00+00:00,279.093,0.8,11.77,47.84626,-54.09684
2024-03-04 20:29:00+00:00,276.103,0.8,11.77,47.84626,-54.09684
2024-03-04 20:39:00+00:00,275.7047,0.8,11.77,47.84626,-54.09684
2024-03-04 20:49:00+00:00,273.1747,0.8,11.77,47.84626,-54.09684
2024-03-04 20:59:00+00:00,270.208,0.8,11.77,47.84626,-54.09684
2024-03-04 21:09:00+00:00,265.8314,0.8,11.77,47.84626,-54.09684
2024-03-04 21:19:00+00:00,261.2214,0.8,11.7,47.84626,-54.09684
2024-03-04 21:29:00+00:00,258.683,0.8,11.7,47.84626,-54.09684
2024-03-04 21:39:00+00:00,259.4831,0.8,11.7,47.84626,-54.09684
2024-03-04 21:49:00+00:00,257.6014,0.8,11.7,47.84626,-54.09684
2024-03-04 21:59:00+00:00,251.718,0.8,11.7,47.84626,-54.09684
2024-03-04 22:09:00+00:00,248.2814,0.8,11.7,47.84626,-54.09684
2024-03-04 22:19:00+00:00,250.9748,0.8,11.61,47.84626,-54.09684
2024-03-04 22:29:00+00:00,251.2415,0.81,11.61,47.84626,-54.09684
2024-03-04 22:39:00+00:00,247.5981,0.83,11.61,47.84626,-54.09684
2024-03-04 22:49:00+00:00,246.8063,0.85,11.61,47.84626,-54.09684
2024-03-04 22:59:00+00:00,246.3881,0.86,11.61,47.84626,-54.09684
2024-03-04 23:09:00+00:00,241.4964,0.86,11.61,47.84626,-54.09684
2024-03-04 23:19:00+00:00,236.338,0.85,11.61,47.84626,-54.09684
2024-03-04 23:29:00+00:00,238.4931,0.86,11.61,47.84626,-54.09684
2024-03-04 23:39:00+00:00,240.2163,0.87,11.61,47.84626,-54.09684
2024-03-04 23:49:00+00:00,239.2681,0.88,11.61,47.84626,-54.09684
2024-03-04 23:59:00+00:00,239.3331,0.8,11.61,47.84626,-54.09684
